Погода в Бандаберге

Австралия     24°52′07″S   152°20′53″E
темп.,
°C
ветер,
м/с
пор.,
м/с
влажн.,
%
обл.,
%
осадки,
мм/ч
давл.,
гПа
погр.,
м
11 мая, вт
вт1101:00+20ююв019599 0.0 101646
04:00+20ю119686 0.1 101539
07:00+19ю239855 0.0 101778
10:00+25в226964 0.0 1017739
13:00+26св326384 0.2 10151057
16:00+25всв33692 0.4 1014530
19:00+21всв23923 0.1 101665
22:00+21св239434 0.4 101678
12 мая, ср
ср1201:00+21св369359 1.6 1016135
04:00+20в01939 3.3 101524
07:00+20ю11936 1.3 101638
10:00+25всв23717 1.4 1017826
13:00+26св336351 0.0 10141068
16:00+23св248120 0.0 1013181
19:00+21в2295100 0.4 101438
22:00+20юв119393 3.9 101515
13 мая, чт
чт1301:00+19ююз129531 1.2 101331
04:00+19ююз23955 1.3 101369
07:00+18ююз249611 0.0 1014121
10:00+23юз34730 0.0 1014598
13:00+27юз34558 0.0 10111154
16:00+26ю36560 0.0 1010565
19:00+20ююз26670 0.0 1013101
22:00+17ююз38550 0.0 1015185
14 мая, пт
пт1401:00+14ююз38570 0.0 1014176
04:00+13юз39620 0.0 1014196
07:00+12юз311650 0.0 1016268
10:00+20ююз69420 0.0 1016695
13:00+24ююз57340 0.0 10131164
16:00+23ююз35410 0.0 1013234
19:00+17ююз36520 0.0 1015125
22:00+15ю34670 0.0 101693
15 мая, сб
сб1501:00+14ююз34700 0.0 101677
04:00+12ююз35680 0.0 101699
07:00+12ююз36690 0.0 1017126
10:00+20ююз33460 0.0 1017483
13:00+24юз02410 0.0 10141364
16:00+22всв11490 0.0 1014124
19:00+16зсз11670 0.0 101671
22:00+14юз312520 0.0 1017299